Preview of NWS' New Version of Forecast
This preview is not operational and should not be used for support decisions.

Regional Weather Roundup (RWR)

Issued by National Weather Service (NWS)

                            
000
ASUS43 KDTX 181410
RWRMI 
MICHIGAN HOURLY REGIONAL WEATHER ROUNDUP
NATIONAL WEATHER SERVICE DETROIT/PONTIAC MI
1000 AM EDT THU APR 18 2019

NOTE: "FAIR" INDICATES FEW OR NO CLOUDS BELOW 12,000 FEET WITH NO
SIGNIFICANT WEATHER AND/OR OBSTRUCTION TO VISIBILITY.

MIZ047>049-052>055-059>063-066>070-074>076-081>083-181500-
SOUTHEAST LOWER MICHIGAN
  
CITY           SKY/WX    TMP DP  RH WIND       PRES   REMARKS
ADRIAN         PTSUNNY   59  54  83 S16       29.59F                  
ALMA           LGT RAIN  61  59  92 S8        29.51F                  
ANN ARBOR      CLOUDY    60  56  86 S10       29.58F                  
BAD AXE        FAIR      64  56  76 SW12      29.54F                  
CARO           LGT RAIN  62  57  82 S13       29.54F                  
DETROIT CITY   FAIR      63  52  67 S10       29.59F                  
DETROIT        LGT RAIN  62  52  69 S22G29    29.61F                  
FLINT          CLOUDY    62  56  80 SW10      29.55F                  
GROSSE ILE     CLOUDY    54  49  85 S14       29.62F                  
HILLSDALE      CLOUDY    61  57  88 S10       29.58F                  
HOWELL         CLOUDY    62  55  76 S12G17    29.56F                  

CITY           SKY/WX    TMP DP  RH WIND       PRES   REMARKS
JACKSON        PTSUNNY   62  59  90 S12       29.56F                  
LAMBERTVILLE   FAIR      63  55  77 S12G17    29.62F                  
LANSING        CLOUDY    62  60  93 S10       29.54F                  
LAPEER         RAIN      64  56  77 SW10      29.58F                  
MASON          PTSUNNY   64  58  81 S8        29.54F                  
MONROE         FAIR      63  60  87 S14G23    29.61F                  
MT. CLEMENS    CLOUDY    60  56  88 SE8       29.58F                  
PONTIAC        LGT RAIN  62  57  83 SW8       29.56F                  
PORT HOPE        N/A     65  56  72 SW12G17   29.51F                  
PORT HURON     CLOUDY    61  50  67 S10       29.61F                  
TRI CITIES     LGT RAIN  63  59  87 S13       29.53F FOG              
MIDLAND        RAIN      62  57  85 S8        29.51F                  
TROY           LGT RAIN  63  53  71 SW8       29.60F                  
SAGINAW HB     HVY RAIN  63  59  88 S13G18    29.54F                  
$$
MIZ043>046-050>051-056>058-064>065-071>073-077>080-181500-
SOUTHWEST LOWER MICHIGAN
  
CITY           SKY/WX    TMP DP  RH WIND       PRES   REMARKS
BATTLE CREEK   CLOUDY    63  59  87 SW16G28   29.54F                  
BENTON HARBOR  CLOUDY    54  52  93 W6        29.56R FOG              
BIG RAPIDS     DRIZZLE   55  53  94 SW3       29.51F                  
COLDWATER      FAIR      63  61  93 S8        29.57S                  
FREMONT        DRIZZLE   52  52  99 W5        29.53R                  
HOLLAND        CLOUDY    53  51  93 W7        29.55S                  
GRAND RAPIDS   CLOUDY    58  55  90 W9        29.51F FOG              
IONIA          LGT RAIN  61  59  93 S13       29.51F                  
KALAMAZOO      CLOUDY    63  59  87 S15       29.55F                  
LUDINGTON      CLOUDY    42  42  97 N6        29.53S FOG              
MARSHALL       FAIR      66  63  90 S13G21    29.55F                  
MOUNT PLEASANT RAIN      58  58 100 S3        29.50F                  
MUSKEGON       FOG       48  45  89 W3        29.54F VSB 1            
SOUTH HAVEN    DRIZZLE   53  51  94 CALM      29.54S                  
$$
MIZ016>042-181500-
NORTHERN LOWER MICHIGAN
  
CITY           SKY/WX    TMP DP  RH WIND       PRES   REMARKS
ALPENA         FAIR      59  53  80 SW8       29.48F                  
BEAVER ISLAND  CLOUDY    40  40  99 CALM      29.51F FOG              
BELLAIRE       CLOUDY    45  42  91 NW6       29.51F FOG              
CADILLAC       FOG       53  51  94 W3        29.49F VSB 1            
CHARLEVOIX     CLOUDY    39  38  97 W7        29.54F FOG     WCI  34  
FRANKFORT      CLOUDY    41  38  87 CALM      29.54F FOG              
GAYLORD        CLOUDY    45  45 100 W6        29.47F FOG              
GRAYLING       CLOUDY    53  52  95 W6        29.48F                  
HARBOR SPRINGS FOG       39  38  96 W6        29.51F VSB 1/4 WCI  35  
HOUGHTON LAKE  CLOUDY    55  51  86 SW6       29.49F                  
MANISTEE       CLOUDY    39  38  96 NW7       29.54R FOG     WCI  34  
OSCODA         PTSUNNY   59  54  84 SW9       29.50F                  
PELLSTON       CLOUDY    43  42  97 W6        29.51S FOG              
ROGERS CITY    CLOUDY    49  47  95 W5        29.51R FOG              
TRAVERSE CITY  CLOUDY    48  45  89 NW7       29.49F FOG              
$$
MIZ007>008-015-181500-
EASTERN UPPER MICHIGAN
  
CITY           SKY/WX    TMP DP  RH WIND       PRES   REMARKS
KINROSS        FOG       39  39 100 CALM      29.50R VSB 1/2          
MACKINAC ISLAN FOG       38  38 100 SW6       29.50R VSB<1/4 WCI  33  
NEWBERRY       FOG       38  36  92 N3        29.51R VSB 1/2          
S. S. MARIE    CLOUDY    42  41  96 CALM      29.49R                  
MUNISING         N/A     34  33  96 N14       29.54S WCI  25          
$$
MIZ004>006-011>014-085-181500-
CENTRAL UPPER MICHIGAN
  
CITY           SKY/WX    TMP DP  RH WIND       PRES   REMARKS
MANISTIQUE     HAZE      38  33  80 NW7       29.50F VSB 1   WCI  33  
ESCANABA       CLOUDY    38  35  89 N8        29.54F WCI  32          
MENOMINEE      CLOUDY    39  36  89 NW6       29.57F WCI  35          
SAWYER-GWINN   FOG       36  34  93 N18G24    29.54F VSB 1/4 WCI  25  
$$
MIZ001>003-009>011-084-181500-
WESTERN UPPER MICHIGAN
  
CITY           SKY/WX    TMP DP  RH WIND       PRES   REMARKS
IRON MOUNTAIN  CLOUDY    38  34  85 N16G22    29.55F WCI  29          
HOUGHTON       CLOUDY    38  34  85 N15G23    29.65S WCI  29          
COPPER HARBOR    N/A     36  34  92 NE10      29.65R WCI  28          
IRONWOOD       MIX PCPN  35  34  96 N14       29.69F WCI  26          
$$

ABBREVIATIONS USED IN REMARKS
   TC - TEMPERATURE IN CELSIUS
  WCI - WIND CHILL INDEX
   HX - HEAT INDEX
  VSB - VISIBILITY